Weather History for Lake Charles, LA

Change the Weather History Date:

Friday, January 4, 2013

  Actual Average Record
Temperature  
Mean Temperature 45 °F -  
Max Temperature 48 °F 60 °F 78 °F (2004)
Min Temperature 42 °F 44 °F 26 °F (1999)
Degree Days  
Heating Degree Days 20    
Moisture  
Dew Point 34 °F    
Average Humidity 65    
Maximum Humidity 71    
Minimum Humidity 54    
Precipitation  
Precipitation 0.00 in - - ()
Sea Level Pressure  
Sea Level Pressure 30.40 in    
Wind  
Wind Speed 6 mph (NNE)    
Max Wind Speed 12 mph    
Max Gust Speed -    
Visibility 10 miles    
Events      
Averages and records for this station are not official NWS values.
T = Trace of Precipitation, MM = Missing Value Source: NWS Daily Summary

Daily Weather History Graph

Daily Weather History Graph

Search for Another Location

Airport:

Trip Planner

Search our weather history database for the weather conditions in past years. The results will help you decide how hot, cold, wet, or windy it might be!

Date:

Astronomy

Jan. 04, 2013 Rise Set
Actual Time 7:09 AM CST 5:25 PM CST
Civil Twilight 6:43 AM CST 5:52 PM CST
Nautical Twilight 6:13 AM CST 6:22 PM CST
Astronomical Twilight 5:44 AM CST 6:51 PM CST
Moon No Moon Rise 11:25 AM CST (1/4)
Length of Visible Light 11h 08m
Length of Day
10h 16m
Waning Gibbous, 55% of the Moon is Illuminated
Jan 4
Waning Gibbous
Jan 4
Last Quarter
Jan 11
New
Jan 18
First Quarter
Jan 26
Full

Hourly Weather History & Observations

Time (CST) Temp. Windchill Dew Point Humidity Pressure Visibility Wind Dir Wind Speed Gust Speed Precip Events Conditions
12:15 AM 45.3 °F 43.0 °F 34.7 °F 66% 30.40 in 10.0 mi ENE 4.6 mph - N/A   Overcast
12:35 AM 44.6 °F 42.2 °F 34.9 °F 69% 30.40 in 10.0 mi NE 4.6 mph - N/A   Mostly Cloudy
12:55 AM 44.4 °F 42.0 °F 34.7 °F 69% 30.39 in 10.0 mi NE 4.6 mph - N/A   Mostly Cloudy
1:15 AM 43.7 °F 41.1 °F 33.4 °F 67% 30.39 in 10.0 mi NE 4.6 mph - N/A   Mostly Cloudy
1:35 AM 43.2 °F 39.7 °F 32.9 °F 67% 30.39 in 10.0 mi NE 5.8 mph - N/A   Scattered Clouds
1:55 AM 43.9 °F 39.9 °F 33.8 °F 68% 30.39 in 10.0 mi NE 6.9 mph - N/A   Mostly Cloudy
2:15 AM 43.7 °F 39.7 °F 33.1 °F 66% 30.38 in 10.0 mi NE 6.9 mph - N/A   Overcast
2:55 AM 42.6 °F 39.0 °F 32.4 °F 67% 30.38 in 10.0 mi NNE 5.8 mph - N/A   Clear
3:15 AM 42.1 °F 39.2 °F 32.7 °F 69% 30.40 in 10.0 mi NNE 4.6 mph - N/A   Mostly Cloudy
5:55 AM 42.8 °F 37.5 °F 33.4 °F 70% 30.40 in 10.0 mi NE 9.2 mph - N/A   Overcast
6:00 AM 42.8 °F 36.6 °F 33.8 °F 70% 30.40 in 10.0 mi NE 11.5 mph - N/A   Overcast
7:45 AM 42.8 °F 38.0 °F 33.8 °F 70% 30.46 in 10.0 mi NNE 8.1 mph - N/A   Mostly Cloudy
8:50 AM 44.6 °F 40.7 °F 33.8 °F 66% 30.51 in 10.0 mi North 6.9 mph - N/A   Overcast
9:55 AM 46.4 °F 42.4 °F 32.0 °F 57% 30.51 in 10.0 mi NNE 8.1 mph - N/A   Mostly Cloudy
10:54 AM 48.2 °F - 32.0 °F 54% 30.50 in 10.0 mi NE 8.1 mph - N/A   Mostly Cloudy
11:48 AM 48.2 °F - 33.8 °F 58% 30.47 in 10.0 mi North 9.2 mph - N/A   Mostly Cloudy
12:50 PM 48.2 °F - 32.0 °F 54% 30.43 in 10.0 mi North 8.1 mph - N/A   Overcast
1:50 PM 46.4 °F 42.9 °F 37.4 °F 71% 30.40 in 10.0 mi North 6.9 mph - N/A   Overcast
2:50 PM 48.2 °F - 33.8 °F 58% 30.39 in 10.0 mi NNE 4.6 mph - N/A   Overcast
3:50 PM 48.2 °F - 35.6 °F 62% 30.38 in 10.0 mi North 6.9 mph - N/A   Overcast
4:50 PM 48.2 °F - 33.8 °F 58% 30.39 in 10.0 mi North 5.8 mph - N/A   Overcast
6:55 PM 46.4 °F 44.3 °F 35.6 °F 66% 30.41 in 10.0 mi NNE 4.6 mph - N/A   Overcast
7:55 PM 46.4 °F 44.3 °F 35.6 °F 66% 30.41 in 10.0 mi NNE 4.6 mph - N/A   Mostly Cloudy
8:58 PM 46.4 °F 43.5 °F 35.6 °F 66% 30.41 in 10.0 mi NNE 5.8 mph - N/A   Overcast
9:45 PM 46.4 °F 42.4 °F 35.6 °F 66% 30.38 in 10.0 mi NE 8.1 mph - N/A   Overcast
10:15 PM 46.8 °F - 36.1 °F 67% 30.37 in 10.0 mi NNE 9.2 mph - N/A   Overcast
10:35 PM 46.6 °F - 35.6 °F 66% 30.36 in 10.0 mi NE 9.2 mph - N/A   Overcast
10:55 PM 46.4 °F 41.9 °F 35.2 °F 65% 30.35 in 10.0 mi NE 9.2 mph - N/A   Mostly Cloudy
11:15 PM 46.6 °F - 35.2 °F 65% 30.35 in 10.0 mi ENE 8.1 mph - N/A   Overcast
11:35 PM 46.4 °F 43.5 °F 35.4 °F 66% 30.35 in 10.0 mi NE 5.8 mph - N/A   Overcast
11:55 PM 46.6 °F - 35.4 °F 65% 30.36 in 10.0 mi NE 3.5 mph - N/A   Overcast